This is the latest recevied weather packets stored in our database for station/object OE2ATN. If no packets are shown the sender has not sent any weather packets the latest 10 day(s).
| Time | Temp. | Humidity | Pressure | Rain* | Wind** | Luminosity | Snow |
|---|---|---|---|---|---|---|---|
| 1777912172 | 22.78° C | 28% | 1018.9 hPa | 0 mm | - | - | - |
| 1777911871 | 22.78° C | 27% | 1018.9 hPa | 0 mm | - | - | - |
| 1777911572 | 22.78° C | 27% | 1018.9 hPa | 0 mm | - | - | - |
| 1777911272 | 22.78° C | 27% | 1018.8 hPa | 0 mm | - | - | - |
| 1777910972 | 22.78° C | 28% | 1018.8 hPa | 0 mm | - | - | - |
| 1777910672 | 22.78° C | 27% | 1018.7 hPa | 0 mm | - | - | - |
| 1777910371 | 23.33° C | 29% | 1018.7 hPa | 0 mm | - | - | - |
| 1777910070 | 22.78° C | 29% | 1018.6 hPa | 0 mm | - | - | - |
| 1777909770 | 22.78° C | 29% | 1018.6 hPa | 0 mm | - | - | - |
| 1777909478 | 23.33° C | 28% | 1018.6 hPa | 0 mm | - | - | - |
| 1777909171 | 23.33° C | 28% | 1018.6 hPa | 0 mm | - | - | - |
| 1777908871 | 23.89° C | 25% | 1018.6 hPa | 0 mm | - | - | - |
| 1777908588 | 23.89° C | 26% | 1018.4 hPa | 0 mm | - | - | - |
| 1777908271 | 23.89° C | 26% | 1018.4 hPa | 0 mm | - | - | - |
| 1777907971 | 24.44° C | 24% | 1018.4 hPa | 0 mm | - | - | - |
| 1777907671 | 24.44° C | 24% | 1018.5 hPa | 0 mm | - | - | - |
| 1777907369 | 24.44° C | 25% | 1018.5 hPa | 0 mm | - | - | - |
| 1777907070 | 24.44° C | 25% | 1018.4 hPa | 0 mm | - | - | - |
| 1777906770 | 24.44° C | 22% | 1018.4 hPa | 0 mm | - | - | - |
| 1777906470 | 24.44° C | 23% | 1018.4 hPa | 0 mm | - | - | - |
| 1777906170 | 25° C | 24% | 1018.4 hPa | 0 mm | - | - | - |
| 1777905870 | 25° C | 24% | 1018.3 hPa | 0 mm | - | - | - |
| 1777905570 | 25° C | 24% | 1018.4 hPa | 0 mm | - | - | - |
| 1777905270 | 25° C | 24% | 1018.4 hPa | 0 mm | - | - | - |
| 1777904969 | 25° C | 24% | 1018.4 hPa | 0 mm | - | - | - |
* Rain latest hour (hover to see other rain measurements)
** Current wind speed in m/s (hover to see current wind gust speed)